Weather History for Thermopolis, WY

Change the Weather History Date:

Wednesday, November 14, 2012

  Actual Average (KWRL) Record (KWRL)
Temperature  
Mean Temperature 30 °F 32 °F  
Max Temperature 33 °F 45 °F 70 °F (1999)
Min Temperature 26 °F 18 °F -19 °F (1978)
Degree Days  
Heating Degree Days 36 33  
Month to date heating degree days 415  
Since 1 July heating degree days 1277  
Cooling Degree Days 0 0  
Month to date cooling degree days 0  
Year to date cooling degree days 535  
Moisture  
Dew Point 22 °F    
Average Humidity 69    
Maximum Humidity 86    
Minimum Humidity 55    
Precipitation  
Precipitation 0.00 in 0.01 in 0.35 in (1991)
Month to date precipitation 0.18  
Year to date precipitation 7.17  
Sea Level Pressure  
Sea Level Pressure 30.20 in    
Wind  
Wind Speed 11 mph ()    
Max Wind Speed 25 mph    
Max Gust Speed 30 mph    
Visibility 10.0 miles    
Events      
T = Trace of Precipitation, MM = Missing Value Source: Averaged Metar Reports

Daily Weather History Graph

Daily Weather History Graph

Search for Another Location

Airport:

Trip Planner

Search our weather history database for the weather conditions in past years. The results will help you decide how hot, cold, wet, or windy it might be!

Date:

Astronomy

Nov. 14, 2012 Rise Set
Actual Time 7:05 AM MST 4:48 PM MST
Civil Twilight 6:35 AM MST 5:19 PM MST
Nautical Twilight 6:00 AM MST 5:53 PM MST
Astronomical Twilight 5:26 AM MST 6:27 PM MST
Moon 8:00 AM MST (11/14) 5:38 PM MST (11/14)
Length of Visible Light 10h 44m
Length of Day
9h 42m
New Moon, 1% of the Moon is Illuminated
Nov 14
New Moon
Nov 20
First Quarter
Nov 28
Full
Dec 6
Last Quarter
Dec 13
New

Hourly Weather History & Observations

Time (MST) Temp. Windchill Dew Point Humidity Pressure Visibility Wind Dir Wind Speed Gust Speed Precip Events Conditions
12:15 AM 28.4 °F 18.5 °F 21.2 °F 74% 30.22 in 10.0 mi SSE 11.5 mph - N/A   Clear
12:35 AM 26.6 °F 17.5 °F 19.4 °F 74% 30.22 in 10.0 mi SSE 9.2 mph - N/A   Clear
12:55 AM 26.6 °F 16.8 °F 21.2 °F 80% 30.21 in 10.0 mi SSE 10.4 mph - N/A   Clear
1:15 AM 28.4 °F 17.5 °F 21.2 °F 74% 30.21 in 10.0 mi South 13.8 mph - N/A   Clear
1:35 AM 30.2 °F 21.3 °F 21.2 °F 69% 30.21 in 10.0 mi South 10.4 mph 18.4 mph N/A   Clear
1:55 AM 32.0 °F 20.5 °F 21.2 °F 64% 30.21 in 10.0 mi SW 18.4 mph 27.6 mph N/A   Clear
2:15 AM 32.0 °F 24.2 °F 21.2 °F 64% 30.22 in 10.0 mi SSW 9.2 mph - N/A   Clear
2:35 AM 32.0 °F 24.2 °F 21.2 °F 64% 30.22 in 10.0 mi SSW 9.2 mph - N/A   Scattered Clouds
2:55 AM 30.2 °F 25.4 °F 21.2 °F 69% 30.21 in 10.0 mi South 4.6 mph - N/A   Clear
3:15 AM 30.2 °F 23.4 °F 21.2 °F 69% 30.20 in 10.0 mi SSE 6.9 mph - N/A   Clear
3:35 AM 30.2 °F 23.4 °F 21.2 °F 69% 30.20 in 10.0 mi South 6.9 mph - N/A   Clear
3:55 AM 28.4 °F 21.2 °F 21.2 °F 74% 30.20 in 10.0 mi SSE 6.9 mph - N/A   Clear
4:15 AM 30.2 °F 19.8 °F 21.2 °F 69% 30.19 in 10.0 mi South 13.8 mph - N/A   Clear
4:35 AM 30.2 °F 17.8 °F 19.4 °F 64% 30.18 in 10.0 mi SSW 19.6 mph - N/A   Clear
4:55 AM 30.2 °F 16.2 °F 21.2 °F 69% 30.18 in 10.0 mi SSW 25.3 mph 29.9 mph N/A   Clear
5:15 AM 32.0 °F 19.5 °F 21.2 °F 64% 30.18 in 10.0 mi SSW 21.9 mph 29.9 mph N/A   Clear
5:35 AM 28.4 °F 17.0 °F 21.2 °F 74% 30.18 in 10.0 mi South 15.0 mph 21.9 mph N/A   Clear
5:55 AM 28.4 °F 17.5 °F 21.2 °F 74% 30.18 in 10.0 mi South 13.8 mph - N/A   Clear
6:15 AM 28.4 °F 18.0 °F 21.2 °F 74% 30.18 in 10.0 mi South 12.7 mph - N/A   Clear
6:35 AM 28.4 °F 18.0 °F 21.2 °F 74% 30.18 in 10.0 mi South 12.7 mph 21.9 mph N/A   Clear
6:55 AM 28.4 °F 17.5 °F 21.2 °F 74% 30.18 in 10.0 mi South 13.8 mph 20.7 mph N/A   Clear
7:15 AM 30.2 °F 19.8 °F 21.2 °F 69% 30.18 in 10.0 mi South 13.8 mph 20.7 mph N/A   Clear
7:35 AM 28.4 °F 17.5 °F 21.2 °F 74% 30.18 in 10.0 mi SSE 13.8 mph - N/A   Clear
7:55 AM 28.4 °F 18.0 °F 21.2 °F 74% 30.19 in 10.0 mi SSE 12.7 mph - N/A   Clear
8:15 AM 26.6 °F 14.7 °F 21.2 °F 80% 30.19 in 10.0 mi South 15.0 mph 18.4 mph N/A   Clear
8:35 AM 28.4 °F 18.0 °F 21.2 °F 74% 30.20 in 10.0 mi South 12.7 mph - N/A   Clear
8:55 AM 30.2 °F 19.3 °F 21.2 °F 69% 30.19 in 10.0 mi South 15.0 mph - N/A   Clear
9:15 AM 30.2 °F 20.2 °F 21.2 °F 69% 30.19 in 10.0 mi South 12.7 mph - N/A   Clear
9:35 AM 30.2 °F 19.8 °F 21.2 °F 69% 30.19 in 10.0 mi SSE 13.8 mph - N/A   Clear
9:55 AM 26.6 °F 17.5 °F 23.0 °F 86% 30.19 in 10.0 mi SSE 9.2 mph 16.1 mph N/A   Clear
10:15 AM 28.4 °F 15.8 °F 21.2 °F 74% 30.18 in 10.0 mi SSE 18.4 mph 23.0 mph N/A   Clear
10:35 AM 30.2 °F 18.9 °F 21.2 °F 69% 30.19 in 10.0 mi SSE 16.1 mph - N/A   Clear
10:55 AM 28.4 °F 19.1 °F 23.0 °F 80% 30.19 in 10.0 mi SSE 10.4 mph - N/A   Scattered Clouds
11:15 AM 30.2 °F 19.8 °F 23.0 °F 75% 30.18 in 10.0 mi SSE 13.8 mph - N/A   Mostly Cloudy
11:35 AM 30.2 °F 20.8 °F 23.0 °F 75% 30.18 in 10.0 mi SSE 11.5 mph - N/A   Mostly Cloudy
11:55 AM 30.2 °F 20.2 °F 23.0 °F 75% 30.18 in 10.0 mi SSE 12.7 mph 20.7 mph N/A   Scattered Clouds
12:15 PM 32.0 °F 22.5 °F 23.0 °F 69% 30.16 in 10.0 mi SE 12.7 mph 18.4 mph N/A   Clear
12:35 PM 30.2 °F 18.9 °F 23.0 °F 75% 30.16 in 10.0 mi South 16.1 mph - N/A   Scattered Clouds
12:55 PM 32.0 °F 24.8 °F 23.0 °F 69% 30.16 in 10.0 mi SSE 8.1 mph - N/A   Overcast
1:15 PM 32.0 °F 21.6 °F 24.8 °F 75% 30.15 in 10.0 mi South 15.0 mph - N/A   Overcast
1:35 PM 33.8 °F 23.9 °F 24.8 °F 70% 30.15 in 10.0 mi South 15.0 mph - N/A   Overcast
1:55 PM 33.8 °F 23.9 °F 26.6 °F 75% 30.15 in 10.0 mi South 15.0 mph - N/A   Overcast
2:15 PM 33.8 °F 23.9 °F 23.0 °F 65% 30.16 in 10.0 mi South 15.0 mph - N/A   Overcast
2:35 PM 33.8 °F 26.4 °F 23.0 °F 65% 30.16 in 10.0 mi South 9.2 mph - N/A   Mostly Cloudy
2:55 PM 33.8 °F 25.3 °F 23.0 °F 65% 30.16 in 10.0 mi South 11.5 mph - N/A   Scattered Clouds
3:15 PM 33.8 °F 26.4 °F 24.8 °F 70% 30.16 in 10.0 mi South 9.2 mph - N/A   Scattered Clouds
3:35 PM 33.8 °F 27.0 °F 24.8 °F 70% 30.17 in 10.0 mi South 8.1 mph - N/A   Mostly Cloudy
3:55 PM 33.8 °F 27.0 °F 24.8 °F 70% 30.18 in 10.0 mi SSW 8.1 mph - N/A   Overcast
4:15 PM 33.8 °F 27.0 °F 24.8 °F 70% 30.18 in 10.0 mi SW 8.1 mph - N/A   Overcast
4:35 PM 33.8 °F 26.4 °F 26.6 °F 75% 30.18 in 10.0 mi SSW 9.2 mph - N/A   Overcast
4:55 PM 33.8 °F 27.7 °F 24.8 °F 70% 30.19 in 10.0 mi West 6.9 mph - N/A   Overcast
5:15 PM 32.0 °F 24.8 °F 23.0 °F 69% 30.20 in 10.0 mi West 8.1 mph - N/A   Overcast
5:35 PM 33.8 °F 27.7 °F 21.2 °F 60% 30.20 in 10.0 mi WNW 6.9 mph - N/A   Overcast
5:55 PM 33.8 °F 27.7 °F 19.4 °F 56% 30.20 in 10.0 mi NW 6.9 mph - N/A   Overcast
6:15 PM 33.8 °F 27.7 °F 19.4 °F 56% 30.21 in 10.0 mi NW 6.9 mph - N/A   Scattered Clouds
6:35 PM 33.8 °F 27.7 °F 19.4 °F 56% 30.21 in 10.0 mi NW 6.9 mph - N/A   Overcast
6:55 PM 32.0 °F 25.6 °F 19.4 °F 60% 30.22 in 10.0 mi NW 6.9 mph - N/A   Overcast
7:15 PM 32.0 °F 23.6 °F 21.2 °F 64% 30.22 in 10.0 mi NW 10.4 mph - N/A   Overcast
7:55 PM 32.0 °F 22.5 °F 19.4 °F 60% 30.24 in 10.0 mi NW 12.7 mph - N/A   Overcast
8:15 PM 32.0 °F 23.6 °F 19.4 °F 60% 30.25 in 10.0 mi NW 10.4 mph - N/A   Overcast
8:35 PM 32.0 °F 23.0 °F 17.6 °F 55% 30.26 in 10.0 mi NW 11.5 mph - N/A   Overcast
8:55 PM 32.0 °F 23.0 °F 19.4 °F 60% 30.26 in 10.0 mi NW 11.5 mph - N/A   Overcast
9:15 PM 32.0 °F 21.6 °F 19.4 °F 60% 30.27 in 10.0 mi NW 15.0 mph - N/A   Overcast
9:35 PM 30.2 °F 18.9 °F 19.4 °F 64% 30.28 in 10.0 mi NW 16.1 mph - N/A   Overcast
9:55 PM 32.0 °F 20.8 °F 21.2 °F 64% 30.28 in 10.0 mi NW 17.3 mph - N/A   Overcast
10:15 PM 32.0 °F 20.1 °F 21.2 °F 64% 30.28 in 10.0 mi NW 19.6 mph - N/A   Overcast
10:35 PM 30.2 °F 18.9 °F 23.0 °F 75% 30.29 in 10.0 mi NW 16.1 mph - N/A   Overcast
10:55 PM 30.2 °F 19.8 °F 23.0 °F 75% 30.29 in 10.0 mi NW 13.8 mph - N/A   Overcast
11:15 PM 30.2 °F 18.5 °F 23.0 °F 75% 30.30 in 10.0 mi WNW 17.3 mph - N/A   Overcast
11:35 PM 30.2 °F 18.9 °F 23.0 °F 75% 30.30 in 10.0 mi NW 16.1 mph - N/A   Overcast
11:55 PM 30.2 °F 19.8 °F 23.0 °F 75% 30.30 in 10.0 mi NW 13.8 mph - N/A   Overcast